Weather History for Glenwood, MN

Change the Weather History Date:

Thursday, April 3, 2014

  Actual Average Record
Temperature  
Mean Temperature 30 °F -  
Max Temperature 33 °F 48 °F 67 °F (1991)
Min Temperature 28 °F 26 °F -2 °F (1975)
Degree Days  
Heating Degree Days 34    
Moisture  
Dew Point 27 °F    
Average Humidity 86    
Maximum Humidity 100    
Minimum Humidity 65    
Precipitation  
Precipitation 0.01 in - - ()
Sea Level Pressure  
Sea Level Pressure 29.94 in    
Wind  
Wind Speed 13 mph (NE)    
Max Wind Speed 21 mph    
Max Gust Speed 24 mph    
Visibility 7 miles    
Events Snow    
Averages and records for this station are not official NWS values.
T = Trace of Precipitation, MM = Missing Value Source: NWS Daily Summary

Daily Weather History Graph

Daily Weather History Graph

Search for Another Location

Airport:

Trip Planner

Search our weather history database for the weather conditions in past years. The results will help you decide how hot, cold, wet, or windy it might be!

Date:

Astronomy

Apr. 03, 2014 Rise Set
Actual Time 6:57 AM CDT 7:52 PM CDT
Civil Twilight 6:27 AM CDT 8:22 PM CDT
Nautical Twilight 5:51 AM CDT 8:58 PM CDT
Astronomical Twilight 5:13 AM CDT 9:36 PM CDT
Moon 9:17 AM CDT (4/3) No Moon Set
Length of Visible Light 13h 54m
Length of Day
12h 54m
Waxing Crescent, 17% of the Moon is Illuminated
Apr 3
Waxing Crescent
Apr 7
First Quarter
Apr 15
Full
Apr 22
Last Quarter
Apr 29
New

Hourly Weather History & Observations

Time (CDT) Temp. Windchill Dew Point Humidity Pressure Visibility Wind Dir Wind Speed Gust Speed Precip Events Conditions
12:13 AM 33.8 °F 25.8 °F 23.0 °F 65% 30.06 in 10.0 mi NE 10.4 mph - N/A   Overcast
12:34 AM 33.8 °F 25.8 °F 23.0 °F 65% 30.06 in 10.0 mi ENE 10.4 mph - N/A   Overcast
12:53 AM 33.8 °F 25.3 °F 24.8 °F 70% 30.05 in 10.0 mi ENE 11.5 mph - N/A   Overcast
1:13 AM 33.8 °F 25.3 °F 24.8 °F 70% 30.03 in 10.0 mi ENE 11.5 mph - N/A   Overcast
1:34 AM 33.8 °F 25.3 °F 24.8 °F 70% 30.03 in 10.0 mi ENE 11.5 mph - N/A   Overcast
1:53 AM 33.8 °F 23.9 °F 24.8 °F 70% 30.02 in 10.0 mi NE 15.0 mph 19.6 mph N/A   Overcast
2:14 AM 33.8 °F 23.5 °F 23.0 °F 65% 30.01 in 10.0 mi NE 16.1 mph - N/A   Overcast
2:33 AM 33.8 °F 25.3 °F 24.8 °F 70% 30.01 in 10.0 mi ENE 11.5 mph - N/A   Overcast
2:53 AM 33.8 °F 25.3 °F 26.6 °F 75% 30.00 in 10.0 mi ENE 11.5 mph - N/A   Overcast
3:13 AM 33.8 °F 24.3 °F 26.6 °F 75% 30.00 in 10.0 mi ENE 13.8 mph - N/A   Overcast
3:33 AM 33.8 °F 24.8 °F 26.6 °F 75% 29.99 in 10.0 mi ENE 12.7 mph - N/A   Overcast
3:54 AM 33.8 °F 24.8 °F 26.6 °F 75% 29.99 in 10.0 mi NE 12.7 mph - N/A   Overcast
4:13 AM 33.8 °F 24.8 °F 26.6 °F 75% 29.98 in 10.0 mi NE 12.7 mph - N/A   Overcast
4:33 AM 32.0 °F 22.1 °F 26.6 °F 80% 29.98 in 10.0 mi ENE 13.8 mph - N/A   Overcast
4:54 AM 33.8 °F 24.3 °F 26.6 °F 75% 29.98 in 10.0 mi ENE 13.8 mph 18.4 mph N/A   Overcast
5:13 AM 32.0 °F 22.1 °F 26.6 °F 80% 29.97 in 10.0 mi ENE 13.8 mph - N/A   Overcast
5:33 AM 32.0 °F 22.1 °F 26.6 °F 80% 29.98 in 10.0 mi ENE 13.8 mph - N/A   Overcast
5:53 AM 32.0 °F 22.5 °F 26.6 °F 80% 29.98 in 10.0 mi ENE 12.7 mph - N/A   Overcast
6:13 AM 32.0 °F 22.5 °F 26.6 °F 80% 29.97 in 10.0 mi ENE 12.7 mph - N/A   Overcast
6:34 AM 32.0 °F 23.0 °F 26.6 °F 80% 29.97 in 10.0 mi ENE 11.5 mph - N/A   Overcast
6:53 AM 32.0 °F 22.5 °F 26.6 °F 80% 29.97 in 10.0 mi ENE 12.7 mph - N/A   Overcast
7:13 AM 32.0 °F 23.6 °F 26.6 °F 80% 29.97 in 10.0 mi ENE 10.4 mph - N/A   Overcast
7:33 AM 32.0 °F 22.5 °F 26.6 °F 80% 29.97 in 10.0 mi ENE 12.7 mph - N/A   Overcast
7:53 AM 33.8 °F 24.3 °F 26.6 °F 75% 29.97 in 10.0 mi ENE 13.8 mph - N/A   Overcast
8:14 AM 32.0 °F 22.1 °F 26.6 °F 80% 29.96 in 10.0 mi ENE 13.8 mph - N/A   Overcast
8:33 AM 32.0 °F 22.1 °F 28.4 °F 87% 29.97 in 2.5 mi ENE 13.8 mph - N/A Snow Light Snow
8:53 AM 30.2 °F 19.3 °F 28.4 °F 93% 29.96 in 2.5 mi ENE 15.0 mph - N/A Snow Light Snow
9:14 AM 30.2 °F 18.5 °F 28.4 °F 93% 29.94 in 2.0 mi ENE 17.3 mph 23.0 mph N/A Snow Light Snow
9:33 AM 32.0 °F 21.6 °F 28.4 °F 87% 29.94 in 3.0 mi ENE 15.0 mph - N/A Snow Light Snow
9:53 AM 30.2 °F 19.8 °F 28.4 °F 93% 29.94 in 2.5 mi ENE 13.8 mph 19.6 mph N/A Snow Light Snow
10:13 AM 30.2 °F 19.8 °F 28.4 °F 93% 29.94 in 2.5 mi ENE 13.8 mph - N/A Snow Light Snow
10:33 AM 30.2 °F 19.3 °F 28.4 °F 93% 29.94 in 3.0 mi ENE 15.0 mph - N/A Snow Light Snow
10:54 AM 32.0 °F 22.1 °F 30.2 °F 93% 29.95 in 2.0 mi ENE 13.8 mph - N/A Snow Light Snow
11:13 AM 32.0 °F 20.8 °F 30.2 °F 93% 29.93 in 3.0 mi ENE 17.3 mph 20.7 mph N/A   Overcast
11:33 AM 32.0 °F 21.6 °F 30.2 °F 93% 29.93 in 4.0 mi ENE 15.0 mph 19.6 mph N/A   Overcast
11:53 AM 32.0 °F 21.6 °F 30.2 °F 93% 29.93 in 4.0 mi NE 15.0 mph - N/A   Overcast
12:13 PM 30.2 °F 19.3 °F 30.2 °F 100% 29.93 in 2.5 mi NE 15.0 mph 20.7 mph N/A   Overcast
12:34 PM 32.0 °F 22.5 °F 30.2 °F 93% 29.93 in 5.0 mi NE 12.7 mph - N/A   Overcast
12:53 PM 32.0 °F 21.6 °F 30.2 °F 93% 29.92 in 3.0 mi NE 15.0 mph - N/A   Overcast
1:13 PM 30.2 °F 19.8 °F 30.2 °F 100% 29.92 in 10.0 mi NNE 13.8 mph - N/A   Overcast
1:33 PM 30.2 °F 18.9 °F 30.2 °F 100% 29.92 in 2.0 mi NNE 16.1 mph - N/A   Overcast
1:53 PM 30.2 °F 19.8 °F 30.2 °F 100% 29.92 in 1.2 mi NNE 13.8 mph - N/A Snow Light Snow
2:14 PM 30.2 °F 20.2 °F 30.2 °F 100% 29.92 in 0.8 mi NNE 12.7 mph 17.3 mph N/A Snow Light Snow
2:33 PM 30.2 °F 18.9 °F 28.4 °F 93% 29.91 in 1.0 mi NE 16.1 mph - N/A Snow Light Snow
2:53 PM 30.2 °F 20.2 °F 28.4 °F 93% 29.89 in 1.5 mi NE 12.7 mph - N/A Snow Light Snow
3:14 PM 30.2 °F 19.3 °F 28.4 °F 93% 29.89 in 1.0 mi NE 15.0 mph 21.9 mph N/A Snow Light Snow
3:33 PM 30.2 °F 18.5 °F 28.4 °F 93% 29.88 in 1.0 mi NE 17.3 mph - N/A Snow Light Snow
3:54 PM 30.2 °F 18.5 °F 28.4 °F 93% 29.89 in 0.8 mi NE 17.3 mph - 0.01 in Snow Light Snow
4:13 PM 30.2 °F 17.4 °F 28.4 °F 93% 29.88 in 0.8 mi NE 20.7 mph - N/A Snow Light Snow
4:33 PM 30.2 °F 18.9 °F 28.4 °F 93% 29.89 in 1.2 mi NE 16.1 mph 20.7 mph N/A Snow Light Snow
4:53 PM 30.2 °F 19.8 °F 28.4 °F 93% 29.88 in 1.5 mi NE 13.8 mph - N/A Snow Light Snow
5:13 PM 30.2 °F 18.9 °F 28.4 °F 93% 29.90 in 4.0 mi NNE 16.1 mph 19.6 mph N/A Snow Light Snow
5:34 PM 30.2 °F 18.1 °F 28.4 °F 93% 29.89 in 7.0 mi NE 18.4 mph 24.2 mph N/A   Mostly Cloudy
5:53 PM 30.2 °F 18.9 °F 28.4 °F 93% 29.89 in 10.0 mi NE 16.1 mph 21.9 mph N/A   Mostly Cloudy
6:13 PM 30.2 °F 18.9 °F 28.4 °F 93% 29.90 in 10.0 mi NE 16.1 mph - N/A   Mostly Cloudy
6:33 PM 30.2 °F 19.3 °F 26.6 °F 86% 29.90 in 10.0 mi ENE 15.0 mph - N/A   Overcast
6:53 PM 30.2 °F 18.1 °F 26.6 °F 86% 29.91 in 10.0 mi NE 18.4 mph - N/A   Mostly Cloudy
7:14 PM 30.2 °F 19.8 °F 26.6 °F 86% 29.91 in 10.0 mi NE 13.8 mph - N/A   Overcast
7:33 PM 30.2 °F 18.1 °F 26.6 °F 86% 29.91 in 10.0 mi NNE 18.4 mph - N/A   Overcast
7:53 PM 28.4 °F 15.8 °F 26.6 °F 93% 29.90 in 10.0 mi NE 18.4 mph 23.0 mph N/A   Mostly Cloudy
8:13 PM 28.4 °F 16.6 °F 26.6 °F 93% 29.89 in 10.0 mi NE 16.1 mph - N/A   Scattered Clouds
8:33 PM 28.4 °F 17.0 °F 26.6 °F 93% 29.89 in 10.0 mi NE 15.0 mph - N/A   Mostly Cloudy
8:53 PM 28.4 °F 17.5 °F 26.6 °F 93% 29.90 in 10.0 mi NE 13.8 mph - N/A   Overcast
9:13 PM 28.4 °F 18.5 °F 26.6 °F 93% 29.90 in 10.0 mi NE 11.5 mph - N/A   Overcast
9:34 PM 28.4 °F 17.0 °F 26.6 °F 93% 29.89 in 10.0 mi NNE 15.0 mph - N/A   Overcast
10:53 PM 28.4 °F 19.1 °F 24.8 °F 86% 29.89 in 10.0 mi North 10.4 mph 16.1 mph N/A   Overcast
11:14 PM 28.4 °F 18.5 °F 24.8 °F 86% 29.88 in 10.0 mi North 11.5 mph - N/A   Overcast
11:33 PM 28.4 °F 18.0 °F 24.8 °F 86% 29.88 in 10.0 mi NNE 12.7 mph - N/A   Overcast
11:53 PM 28.4 °F 19.7 °F 24.8 °F 86% 29.88 in 10.0 mi North 9.2 mph - N/A   Overcast